Overview Statistics Trail Chart Weather Telemetry Raw packets
 

This is the latest recevied weather packets stored in our database for station/object W5MAI. If no packets are shown the sender has not sent any weather packets the latest 10 day(s).

<< 24 25 26 27 28 29 30 >>
Time Temp. Humidity Pressure Rain* Wind** Luminosity Snow
1788222220 33.89° C 45% 1015 hPa 0 mm - 47 W/m² -
1788221603 34.44° C 45% 1015 hPa 0 mm - 77 W/m² -
1788221014 33.89° C 45% 1014.9 hPa 0 mm - 107 W/m² -
1788220442 33.89° C 46% 1014.9 hPa 0 mm - 144 W/m² -
1788219807 33.89° C 45% 1014.8 hPa 0 mm - 46 W/m² -
1788219221 34.44° C 44% 1014.9 hPa 0 mm - 62 W/m² -
1788218644 34.44° C 43% 1014.9 hPa 0 mm - 63 W/m² -
1788218006 34.44° C 45% 1014.9 hPa 0 mm - 315 W/m² -
1788217426 33.89° C 46% 1015 hPa 0 mm - 195 W/m² -
1788216859 34.44° C 44% 1015.1 hPa 0 mm - 77 W/m² -
1788216211 35° C 44% 1015.1 hPa 0 mm - 457 W/m² -
1788215640 35° C 44% 1015.1 hPa 0 mm - 485 W/m² -
1788215068 35.56° C 43% 1015.2 hPa 0 mm - 568 W/m² -
1788214414 34.44° C 45% 1015.2 hPa 0 mm - 592 W/m² -
1788213225 35° C 44% 1015.4 hPa 0 mm - 638 W/m² -
1788212650 35° C 44% 1015.5 hPa 0 mm - 686 W/m² -
1788212006 34.44° C 46% 1015.8 hPa 0 mm - 132 W/m² -
1788210833 33.89° C 47% 1015.9 hPa 0 mm - 151 W/m² -
1788210258 33.89° C 48% 1016 hPa 0 mm - 181 W/m² -
1788209619 34.44° C 47% 1016.2 hPa 0 mm - 144 W/m² -
1788209041 33.89° C 48% 1016.3 hPa 0 mm - 171 W/m² -
1788208403 33.89° C 47% 1016.7 hPa 0 mm - 234 W/m² -
1788207228 35° C 46% 1016.8 hPa 0 mm - 904 W/m² -
1788206663 34.44° C 47% 1017.1 hPa 0 mm - 947 W/m² -
1788206010 34.44° C 48% 1017.3 hPa 0 mm - 977 W/m² -

* Rain latest hour (hover to see other rain measurements)
** Current wind speed in m/s (hover to see current wind gust speed)